Location: *
(46.3500°N, 10.9000°E)
Time: 08:29:27
(UTC+00:00)

Cosmos 1821 Rocket - Pass Details

Date: 09 April 2020
Orbit: 945 x 1005 km, 82.9° (Epoch: 06 June)

Event Time Altitude Azimuth Distance (km) Brightness Sun altitude
Rises 20:17:03 0° 354° (N) 3,731 7.7 -22.4°
Reaches altitude 10° 20:19:40 10° 360° (N) 2,782 6.9 -22.8°
Maximum altitude 20:25:55 52° 76° (ENE) 1,237 4.3 -23.6°
Enters shadow 20:27:02 47° 109° (ESE) 1,315 4.2 -23.7°
